Year,Month,Day,Hour,Minute,Value (Times are PST for temperature in C)
2014,04,13,00,00,9.30
2014,04,13,00,01,9.30
2014,04,13,00,02,9.30
2014,04,13,00,03,9.30
2014,04,13,00,04,9.30
2014,04,13,00,05,9.30
2014,04,13,00,06,9.30
2014,04,13,00,07,9.30
2014,04,13,00,08,9.30
2014,04,13,00,09,9.30
2014,04,13,00,10,9.40
2014,04,13,00,11,9.40
2014,04,13,00,12,9.40
2014,04,13,00,13,9.50
2014,04,13,00,14,9.50
2014,04,13,00,15,9.60
2014,04,13,00,16,9.60
2014,04,13,00,17,9.50
2014,04,13,00,18,9.60
2014,04,13,00,19,9.60
2014,04,13,00,20,9.60
2014,04,13,00,21,9.60
2014,04,13,00,22,9.60
2014,04,13,00,23,9.70
2014,04,13,00,24,9.70
2014,04,13,00,25,9.70
2014,04,13,00,26,9.80
2014,04,13,00,27,9.80
2014,04,13,00,28,9.80
2014,04,13,00,29,9.80
2014,04,13,00,30,9.80
2014,04,13,00,31,9.80
2014,04,13,00,32,9.80
2014,04,13,00,33,9.80
2014,04,13,00,34,9.80
2014,04,13,00,35,9.80
2014,04,13,00,36,9.80
2014,04,13,00,37,9.80
2014,04,13,00,38,9.80
2014,04,13,00,39,9.80
2014,04,13,00,40,9.80
2014,04,13,00,41,9.80
2014,04,13,00,42,9.80
2014,04,13,00,43,9.80
2014,04,13,00,44,9.90
2014,04,13,00,45,9.90
2014,04,13,00,46,9.90
2014,04,13,00,47,9.90
2014,04,13,00,48,9.90
2014,04,13,00,49,9.90
2014,04,13,00,50,9.90
2014,04,13,00,51,9.80
2014,04,13,00,52,9.90
2014,04,13,00,53,9.90
2014,04,13,00,54,9.90
2014,04,13,00,55,9.90
2014,04,13,00,56,9.90
2014,04,13,00,57,9.90
2014,04,13,00,58,10.00
2014,04,13,00,59,10.00
2014,04,13,01,00,10.00
2014,04,13,01,01,10.10
2014,04,13,01,02,10.10
2014,04,13,01,03,10.10
2014,04,13,01,04,10.20
2014,04,13,01,05,10.20
2014,04,13,01,06,10.10
2014,04,13,01,07,10.10
2014,04,13,01,08,10.10
2014,04,13,01,09,10.10
2014,04,13,01,10,10.10
2014,04,13,01,11,10.00
2014,04,13,01,12,10.00
2014,04,13,01,13,10.00
2014,04,13,01,14,10.00
2014,04,13,01,15,10.00
2014,04,13,01,16,9.90
2014,04,13,01,17,9.90
2014,04,13,01,18,9.90
2014,04,13,01,19,9.90
2014,04,13,01,20,9.80
2014,04,13,01,21,9.80
2014,04,13,01,22,9.80
2014,04,13,01,23,9.70
2014,04,13,01,24,9.70
2014,04,13,01,25,9.70
2014,04,13,01,26,9.70
2014,04,13,01,27,9.60
2014,04,13,01,28,9.60
2014,04,13,01,29,9.60
2014,04,13,01,30,9.60
2014,04,13,01,31,9.60
2014,04,13,01,32,9.60
2014,04,13,01,33,9.60
2014,04,13,01,34,9.50
2014,04,13,01,35,9.50
2014,04,13,01,36,9.40
2014,04,13,01,37,9.40
2014,04,13,01,38,9.40
2014,04,13,01,39,9.50
2014,04,13,01,40,9.50
2014,04,13,01,41,9.50
2014,04,13,01,42,9.60
2014,04,13,01,43,9.60
2014,04,13,01,44,9.60
2014,04,13,01,45,9.60
2014,04,13,01,46,9.60
2014,04,13,01,47,9.60
2014,04,13,01,48,9.60
2014,04,13,01,49,9.50
2014,04,13,01,50,9.50
2014,04,13,01,51,9.50
2014,04,13,01,52,9.40
2014,04,13,01,53,9.40
2014,04,13,01,54,9.40
2014,04,13,01,55,9.40
2014,04,13,01,56,9.40
2014,04,13,01,57,9.40
2014,04,13,01,58,9.40
2014,04,13,01,59,9.40
2014,04,13,02,00,9.40
2014,04,13,02,01,9.40
2014,04,13,02,02,9.40
2014,04,13,02,03,9.40
2014,04,13,02,04,9.40
2014,04,13,02,05,9.40
2014,04,13,02,06,9.30
2014,04,13,02,07,9.30
2014,04,13,02,08,9.30
2014,04,13,02,09,9.40
2014,04,13,02,10,9.40
2014,04,13,02,11,9.40
2014,04,13,02,12,9.40
2014,04,13,02,13,9.30
2014,04,13,02,14,9.30
2014,04,13,02,15,9.30
2014,04,13,02,16,9.30
2014,04,13,02,17,9.30
2014,04,13,02,18,9.20
2014,04,13,02,19,9.20
2014,04,13,02,20,9.20
2014,04,13,02,21,9.20
2014,04,13,02,22,9.10
2014,04,13,02,23,9.10
2014,04,13,02,24,9.10
2014,04,13,02,25,9.00
2014,04,13,02,26,9.00
2014,04,13,02,27,8.90
2014,04,13,02,28,8.80
2014,04,13,02,29,8.80
2014,04,13,02,30,8.80
2014,04,13,02,31,8.80
2014,04,13,02,32,8.80
2014,04,13,02,33,8.80
2014,04,13,02,34,8.80
2014,04,13,02,35,8.80
2014,04,13,02,36,8.80
2014,04,13,02,37,8.80
2014,04,13,02,38,8.70
2014,04,13,02,39,8.70
2014,04,13,02,40,8.70
2014,04,13,02,41,8.70
2014,04,13,02,42,8.70
2014,04,13,02,43,8.70
2014,04,13,02,44,8.60
2014,04,13,02,45,8.70
2014,04,13,02,46,8.70
2014,04,13,02,47,8.60
2014,04,13,02,48,8.60
2014,04,13,02,49,8.60
2014,04,13,02,50,8.60
2014,04,13,02,51,8.60
2014,04,13,02,52,8.60
2014,04,13,02,53,8.60
2014,04,13,02,54,8.60
2014,04,13,02,55,8.60
2014,04,13,02,56,8.60
2014,04,13,02,57,8.60
2014,04,13,02,58,8.60
2014,04,13,02,59,8.60
2014,04,13,03,00,8.60
2014,04,13,03,01,8.60
2014,04,13,03,02,8.60
2014,04,13,03,03,8.60
2014,04,13,03,04,8.60
2014,04,13,03,05,8.50
2014,04,13,03,06,8.50
2014,04,13,03,07,8.50
2014,04,13,03,08,8.50
2014,04,13,03,09,8.50
2014,04,13,03,10,8.50
2014,04,13,03,11,8.50
2014,04,13,03,12,8.50
2014,04,13,03,13,8.50
2014,04,13,03,14,8.50
2014,04,13,03,15,8.50
2014,04,13,03,16,8.50
2014,04,13,03,17,8.50
2014,04,13,03,18,8.50
2014,04,13,03,19,8.50
2014,04,13,03,20,8.50
2014,04,13,03,21,8.50
2014,04,13,03,22,8.50
2014,04,13,03,23,8.50
2014,04,13,03,24,8.50
2014,04,13,03,25,8.50
2014,04,13,03,26,8.50
2014,04,13,03,27,8.50
2014,04,13,03,28,8.50
2014,04,13,03,29,8.50
2014,04,13,03,30,8.50
2014,04,13,03,31,8.50
2014,04,13,03,32,8.40
2014,04,13,03,33,8.40
2014,04,13,03,34,8.40
2014,04,13,03,35,8.30
2014,04,13,03,36,8.30
2014,04,13,03,37,8.30
2014,04,13,03,38,8.20
2014,04,13,03,39,8.20
2014,04,13,03,40,8.20
2014,04,13,03,41,8.20
2014,04,13,03,42,8.20
2014,04,13,03,43,8.10
2014,04,13,03,44,8.10
2014,04,13,03,45,8.10
2014,04,13,03,46,8.10
2014,04,13,03,47,8.10
2014,04,13,03,48,8.10
2014,04,13,03,49,8.00
2014,04,13,03,50,8.00
2014,04,13,03,51,8.00
2014,04,13,03,52,8.00
2014,04,13,03,53,8.00
2014,04,13,03,54,8.00
2014,04,13,03,55,8.00
2014,04,13,03,56,8.00
2014,04,13,03,57,8.00
2014,04,13,03,58,8.00
2014,04,13,03,59,7.90
2014,04,13,04,00,7.90
2014,04,13,04,01,7.90
2014,04,13,04,02,7.90
2014,04,13,04,03,7.90
2014,04,13,04,04,7.90
2014,04,13,04,05,7.90
2014,04,13,04,06,7.90
2014,04,13,04,07,7.90
2014,04,13,04,08,7.90
2014,04,13,04,09,7.80
2014,04,13,04,10,7.80
2014,04,13,04,11,7.90
2014,04,13,04,12,7.90
2014,04,13,04,13,7.90
2014,04,13,04,14,7.90
2014,04,13,04,15,7.90
2014,04,13,04,16,8.00
2014,04,13,04,17,8.00
2014,04,13,04,18,8.10
2014,04,13,04,19,8.10
2014,04,13,04,20,8.10
2014,04,13,04,21,8.10
2014,04,13,04,22,8.10
2014,04,13,04,23,8.20
2014,04,13,04,24,8.20
2014,04,13,04,25,8.20
2014,04,13,04,26,8.20
2014,04,13,04,27,8.20
2014,04,13,04,28,8.20
2014,04,13,04,29,8.20
2014,04,13,04,30,8.20
2014,04,13,04,31,8.20
2014,04,13,04,32,8.30
2014,04,13,04,33,8.30
2014,04,13,04,34,8.30
2014,04,13,04,35,8.30
2014,04,13,04,36,8.30
2014,04,13,04,37,8.30
2014,04,13,04,38,8.30
2014,04,13,04,39,8.30
2014,04,13,04,40,8.30
2014,04,13,04,41,8.30
2014,04,13,04,42,8.30
2014,04,13,04,43,8.30
2014,04,13,04,44,8.30
2014,04,13,04,45,8.30
2014,04,13,04,46,8.30
2014,04,13,04,47,8.30
2014,04,13,04,48,8.30
2014,04,13,04,49,8.20
2014,04,13,04,50,8.30
2014,04,13,04,51,8.30
2014,04,13,04,52,8.30
2014,04,13,04,53,8.30
2014,04,13,04,54,8.30
2014,04,13,04,55,8.30
2014,04,13,04,56,8.30
2014,04,13,04,57,8.30
2014,04,13,04,58,8.20
2014,04,13,04,59,8.20
2014,04,13,05,00,8.20
2014,04,13,05,01,8.20
2014,04,13,05,02,8.20
2014,04,13,05,03,8.20
2014,04,13,05,04,8.20
2014,04,13,05,05,8.20
2014,04,13,05,06,8.10
2014,04,13,05,07,8.10
2014,04,13,05,08,8.10
2014,04,13,05,09,8.10
2014,04,13,05,10,8.00
2014,04,13,05,11,8.00
2014,04,13,05,12,8.00
2014,04,13,05,13,8.00
2014,04,13,05,14,8.00
2014,04,13,05,15,8.00
2014,04,13,05,16,8.00
2014,04,13,05,17,8.00
2014,04,13,05,18,8.00
2014,04,13,05,19,8.00
2014,04,13,05,20,8.00
2014,04,13,05,21,8.00
2014,04,13,05,22,8.00
2014,04,13,05,23,8.00
2014,04,13,05,24,8.00
2014,04,13,05,25,8.00
2014,04,13,05,26,8.00
2014,04,13,05,27,8.00
2014,04,13,05,28,8.00
2014,04,13,05,29,8.00
2014,04,13,05,30,8.00
2014,04,13,05,31,8.00
2014,04,13,05,32,8.00
2014,04,13,05,33,8.00
2014,04,13,05,34,8.10
2014,04,13,05,35,8.10
2014,04,13,05,36,8.10
2014,04,13,05,37,8.10
2014,04,13,05,38,8.00
2014,04,13,05,39,8.00
2014,04,13,05,40,8.00
2014,04,13,05,41,7.90
2014,04,13,05,42,7.90
2014,04,13,05,43,7.90
2014,04,13,05,44,7.90
2014,04,13,05,45,7.90
2014,04,13,05,46,7.90
2014,04,13,05,47,7.80
2014,04,13,05,48,7.80
2014,04,13,05,49,7.80
2014,04,13,05,50,7.80
2014,04,13,05,51,7.80
2014,04,13,05,52,7.80
2014,04,13,05,53,7.70
2014,04,13,05,54,7.70
2014,04,13,05,55,7.70
2014,04,13,05,56,7.70
2014,04,13,05,57,7.70
2014,04,13,05,58,7.60
2014,04,13,05,59,7.60
2014,04,13,06,00,7.50
2014,04,13,06,01,7.50
2014,04,13,06,02,7.50
2014,04,13,06,03,7.50
2014,04,13,06,04,7.50
2014,04,13,06,05,7.50
2014,04,13,06,06,7.50
2014,04,13,06,07,7.60
2014,04,13,06,08,7.60
2014,04,13,06,09,7.60
2014,04,13,06,10,7.60
2014,04,13,06,11,7.50
2014,04,13,06,12,7.50
2014,04,13,06,13,7.50
2014,04,13,06,14,7.50
2014,04,13,06,15,7.50
2014,04,13,06,16,7.40
2014,04,13,06,17,7.40
2014,04,13,06,18,7.40
2014,04,13,06,19,7.40
2014,04,13,06,20,7.40
2014,04,13,06,21,7.40
2014,04,13,06,22,7.40
2014,04,13,06,23,7.40
2014,04,13,06,24,7.40
2014,04,13,06,25,7.40
2014,04,13,06,26,7.50
2014,04,13,06,27,7.50
2014,04,13,06,28,7.50
2014,04,13,06,29,7.50
2014,04,13,06,30,7.50
2014,04,13,06,31,7.60
2014,04,13,06,32,7.60
2014,04,13,06,33,7.60
2014,04,13,06,34,7.60
2014,04,13,06,35,7.50
2014,04,13,06,36,7.50
2014,04,13,06,37,7.50
2014,04,13,06,38,7.50
2014,04,13,06,39,7.50
2014,04,13,06,40,7.50
2014,04,13,06,41,7.50
2014,04,13,06,42,7.50
2014,04,13,06,43,7.60
2014,04,13,06,44,7.60
2014,04,13,06,45,7.60
2014,04,13,06,46,7.60
2014,04,13,06,47,7.60
2014,04,13,06,48,7.70
2014,04,13,06,49,7.70
2014,04,13,06,50,7.70
2014,04,13,06,51,7.70
2014,04,13,06,52,7.70
2014,04,13,06,53,7.70
2014,04,13,06,54,7.70
2014,04,13,06,55,7.70
2014,04,13,06,56,7.70
2014,04,13,06,57,7.70
2014,04,13,06,58,7.70
2014,04,13,06,59,7.70
2014,04,13,07,00,7.70
2014,04,13,07,01,7.70
2014,04,13,07,02,7.70
2014,04,13,07,03,7.70
2014,04,13,07,04,7.70
2014,04,13,07,05,7.60
2014,04,13,07,06,7.60
2014,04,13,07,07,7.60
2014,04,13,07,08,7.60
2014,04,13,07,09,7.60
2014,04,13,07,10,7.60
2014,04,13,07,11,7.50
2014,04,13,07,12,7.50
2014,04,13,07,13,7.50
2014,04,13,07,14,7.50
2014,04,13,07,15,7.50
2014,04,13,07,16,7.50
2014,04,13,07,17,7.50
2014,04,13,07,18,7.50
2014,04,13,07,19,7.50
2014,04,13,07,20,7.50
2014,04,13,07,21,7.50
2014,04,13,07,22,7.50
2014,04,13,07,23,7.60
2014,04,13,07,24,7.60
2014,04,13,07,25,7.60
2014,04,13,07,26,7.60
2014,04,13,07,27,7.70
2014,04,13,07,28,7.70
2014,04,13,07,29,7.70
2014,04,13,07,30,7.70
2014,04,13,07,31,7.80
2014,04,13,07,32,7.80
2014,04,13,07,33,7.80
2014,04,13,07,34,7.80
2014,04,13,07,35,7.90
2014,04,13,07,36,7.90
2014,04,13,07,37,7.90
2014,04,13,07,38,7.90
2014,04,13,07,39,8.00
2014,04,13,07,40,8.00
2014,04,13,07,41,8.10
2014,04,13,07,42,8.10
2014,04,13,07,43,8.10
2014,04,13,07,44,8.10
2014,04,13,07,45,8.10
2014,04,13,07,46,8.10
2014,04,13,07,47,8.10
2014,04,13,07,48,8.10
2014,04,13,07,49,8.20
2014,04,13,07,50,8.20
2014,04,13,07,51,8.20
2014,04,13,07,52,8.30
2014,04,13,07,53,8.30
2014,04,13,07,54,8.30
2014,04,13,07,55,8.40
2014,04,13,07,56,8.40
2014,04,13,07,57,8.50
2014,04,13,07,58,8.50
2014,04,13,07,59,8.60
2014,04,13,08,00,8.60
2014,04,13,08,01,8.70
2014,04,13,08,02,8.70
2014,04,13,08,03,8.80
2014,04,13,08,04,8.80
2014,04,13,08,05,8.90
2014,04,13,08,06,9.00
2014,04,13,08,07,9.00
2014,04,13,08,08,9.10
2014,04,13,08,09,9.20
2014,04,13,08,10,9.20
2014,04,13,08,11,9.30
2014,04,13,08,12,9.30
2014,04,13,08,13,9.30
2014,04,13,08,14,9.40
2014,04,13,08,15,9.40
2014,04,13,08,16,9.50
2014,04,13,08,17,9.50
2014,04,13,08,18,9.60
2014,04,13,08,19,9.70
2014,04,13,08,20,9.70
2014,04,13,08,21,9.80
2014,04,13,08,22,9.80
2014,04,13,08,23,9.80
2014,04,13,08,24,9.90
2014,04,13,08,25,10.00
2014,04,13,08,26,10.00
2014,04,13,08,27,10.10
2014,04,13,08,28,10.20
2014,04,13,08,29,10.20
2014,04,13,08,30,10.30
2014,04,13,08,31,10.40
2014,04,13,08,32,10.40
2014,04,13,08,33,10.50
2014,04,13,08,34,10.50
2014,04,13,08,35,10.60
2014,04,13,08,36,10.70
2014,04,13,08,37,10.80
2014,04,13,08,38,10.80
2014,04,13,08,39,10.90
2014,04,13,08,40,10.90
2014,04,13,08,41,11.00
2014,04,13,08,42,11.00
2014,04,13,08,43,11.20
2014,04,13,08,44,11.30
2014,04,13,08,45,11.40
2014,04,13,08,46,11.40
2014,04,13,08,47,11.50
2014,04,13,08,48,11.50
2014,04,13,08,49,11.60
2014,04,13,08,50,11.60
2014,04,13,08,51,11.70
2014,04,13,08,52,11.80
2014,04,13,08,53,11.90
2014,04,13,08,54,12.00
2014,04,13,08,55,12.10
2014,04,13,08,56,12.20
2014,04,13,08,57,12.30
2014,04,13,08,58,12.40
2014,04,13,08,59,12.50
2014,04,13,09,00,12.60
2014,04,13,09,01,12.70
2014,04,13,09,02,12.70
2014,04,13,09,03,12.80
2014,04,13,09,04,12.80
2014,04,13,09,05,12.80
2014,04,13,09,06,12.80
2014,04,13,09,07,12.80
2014,04,13,09,08,12.90
2014,04,13,09,09,12.90
2014,04,13,09,10,12.90
2014,04,13,09,11,13.00
2014,04,13,09,12,13.00
2014,04,13,09,13,13.10
2014,04,13,09,14,13.10
2014,04,13,09,15,13.10
2014,04,13,09,16,13.20
2014,04,13,09,17,13.20
2014,04,13,09,18,13.30
2014,04,13,09,19,13.30
2014,04,13,09,20,13.30
2014,04,13,09,21,13.40
2014,04,13,09,22,13.40
2014,04,13,09,23,13.50
2014,04,13,09,24,13.60
2014,04,13,09,25,13.60
2014,04,13,09,26,13.50
2014,04,13,09,27,13.40
2014,04,13,09,28,13.30
2014,04,13,09,29,13.30
2014,04,13,09,30,13.20
2014,04,13,09,31,13.20
2014,04,13,09,32,13.20
2014,04,13,09,33,13.10
2014,04,13,09,34,13.20
2014,04,13,09,35,13.20
2014,04,13,09,36,13.30
2014,04,13,09,37,13.30
2014,04,13,09,38,13.30
2014,04,13,09,39,13.30
2014,04,13,09,40,13.30
2014,04,13,09,41,13.30
2014,04,13,09,42,13.40
2014,04,13,09,43,13.40
2014,04,13,09,44,13.40
2014,04,13,09,45,13.40
2014,04,13,09,46,13.40
2014,04,13,09,47,13.40
2014,04,13,09,48,13.40
2014,04,13,09,49,13.30
2014,04,13,09,50,13.30
2014,04,13,09,51,13.30
2014,04,13,09,52,13.30
2014,04,13,09,53,13.30
2014,04,13,09,54,13.30
2014,04,13,09,55,13.30
2014,04,13,09,56,13.30
2014,04,13,09,57,13.40
2014,04,13,09,58,13.50
2014,04,13,09,59,13.60
2014,04,13,10,00,13.60
2014,04,13,10,01,13.70
2014,04,13,10,02,13.60
2014,04,13,10,03,13.60
2014,04,13,10,04,13.70
2014,04,13,10,05,13.70
2014,04,13,10,06,13.70
2014,04,13,10,07,13.80
2014,04,13,10,08,13.80
2014,04,13,10,09,13.80
2014,04,13,10,10,13.80
2014,04,13,10,11,13.80
2014,04,13,10,12,13.80
2014,04,13,10,13,13.80
2014,04,13,10,14,13.80
2014,04,13,10,15,13.80
2014,04,13,10,16,13.80
2014,04,13,10,17,13.80
2014,04,13,10,18,13.80
2014,04,13,10,19,13.80
2014,04,13,10,20,13.70
2014,04,13,10,21,13.70
2014,04,13,10,22,13.70
2014,04,13,10,23,13.70
2014,04,13,10,24,13.60
2014,04,13,10,25,13.50
2014,04,13,10,26,13.50
2014,04,13,10,27,13.40
2014,04,13,10,28,13.30
2014,04,13,10,29,13.20
2014,04,13,10,30,13.20
2014,04,13,10,31,13.10
2014,04,13,10,32,13.10
2014,04,13,10,33,13.00
2014,04,13,10,34,13.00
2014,04,13,10,35,13.10
2014,04,13,10,36,13.10
2014,04,13,10,37,13.10
2014,04,13,10,38,13.10
2014,04,13,10,39,13.20
2014,04,13,10,40,13.20
2014,04,13,10,41,13.20
2014,04,13,10,42,13.10
2014,04,13,10,43,13.10
2014,04,13,10,44,13.20
2014,04,13,10,45,13.20
2014,04,13,10,46,13.20
2014,04,13,10,47,13.20
2014,04,13,10,48,13.20
2014,04,13,10,49,13.20
2014,04,13,10,50,13.20
2014,04,13,10,51,13.20
2014,04,13,10,52,13.20
2014,04,13,10,53,13.30
2014,04,13,10,54,13.30
2014,04,13,10,55,13.40
2014,04,13,10,56,13.50
2014,04,13,10,57,13.60
2014,04,13,10,58,13.60
2014,04,13,10,59,13.70
2014,04,13,11,00,13.80
2014,04,13,11,01,13.80
2014,04,13,11,02,13.80
2014,04,13,11,03,13.90
2014,04,13,11,04,13.90
2014,04,13,11,05,14.00
2014,04,13,11,06,14.10
2014,04,13,11,07,14.10
2014,04,13,11,08,14.20
2014,04,13,11,09,14.20
2014,04,13,11,10,14.20
2014,04,13,11,11,14.30
2014,04,13,11,12,14.30
2014,04,13,11,13,14.30
2014,04,13,11,14,14.40
2014,04,13,11,15,14.40
2014,04,13,11,16,14.50
2014,04,13,11,17,14.60
2014,04,13,11,18,14.60
2014,04,13,11,19,14.60
2014,04,13,11,20,14.50
2014,04,13,11,21,14.50
2014,04,13,11,22,14.40
2014,04,13,11,23,14.30
2014,04,13,11,24,14.30
2014,04,13,11,25,14.30
2014,04,13,11,26,14.40
2014,04,13,11,27,14.40
2014,04,13,11,28,14.40
2014,04,13,11,29,14.40
2014,04,13,11,30,14.50
2014,04,13,11,31,14.50
2014,04,13,11,32,14.60
2014,04,13,11,33,14.60
2014,04,13,11,34,14.70
2014,04,13,11,35,14.80
2014,04,13,11,36,14.90
2014,04,13,11,37,15.00
2014,04,13,11,38,15.00
2014,04,13,11,39,15.00
2014,04,13,11,40,15.00
2014,04,13,11,41,15.00
2014,04,13,11,42,15.00
2014,04,13,11,43,15.00
2014,04,13,11,44,15.00
2014,04,13,11,45,15.10
2014,04,13,11,46,15.10
2014,04,13,11,47,15.00
2014,04,13,11,48,15.00
2014,04,13,11,49,15.00
2014,04,13,11,50,15.00
2014,04,13,11,51,15.00
2014,04,13,11,52,15.00
2014,04,13,11,53,15.00
2014,04,13,11,54,15.00
2014,04,13,11,55,14.90
2014,04,13,11,56,14.80
2014,04,13,11,57,14.70
2014,04,13,11,58,14.50
2014,04,13,11,59,14.40
2014,04,13,12,00,14.30
2014,04,13,12,01,14.30
2014,04,13,12,02,14.30
2014,04,13,12,03,14.30
2014,04,13,12,04,14.40
2014,04,13,12,05,14.50
2014,04,13,12,06,14.60
2014,04,13,12,07,14.60
2014,04,13,12,08,14.70
2014,04,13,12,09,14.70
2014,04,13,12,10,14.80
2014,04,13,12,11,14.80
2014,04,13,12,12,14.90
2014,04,13,12,13,15.00
2014,04,13,12,14,15.00
2014,04,13,12,15,15.00
2014,04,13,12,16,15.00
2014,04,13,12,17,15.20
2014,04,13,12,18,15.30
2014,04,13,12,19,15.30
2014,04,13,12,20,15.40
2014,04,13,12,21,15.50
2014,04,13,12,22,15.60
2014,04,13,12,23,15.60
2014,04,13,12,24,15.60
2014,04,13,12,25,15.60
2014,04,13,12,26,15.50
2014,04,13,12,27,15.50
2014,04,13,12,28,15.50
2014,04,13,12,29,15.40
2014,04,13,12,30,15.30
2014,04,13,12,31,15.30
2014,04,13,12,32,15.30
2014,04,13,12,33,15.30
2014,04,13,12,34,15.40
2014,04,13,12,35,15.30
2014,04,13,12,36,15.20
2014,04,13,12,37,15.20
2014,04,13,12,38,15.00
2014,04,13,12,39,15.00
2014,04,13,12,40,15.10
2014,04,13,12,41,15.10
2014,04,13,12,42,15.20
2014,04,13,12,43,15.30
2014,04,13,12,44,15.20
2014,04,13,12,45,15.30
2014,04,13,12,46,15.30
2014,04,13,12,47,15.40
2014,04,13,12,48,15.50
2014,04,13,12,49,15.50
2014,04,13,12,50,15.60
2014,04,13,12,51,15.60
2014,04,13,12,52,15.60
2014,04,13,12,53,15.60
2014,04,13,12,54,15.60
2014,04,13,12,55,15.60
2014,04,13,12,56,15.70
2014,04,13,12,57,15.60
2014,04,13,12,58,15.60
2014,04,13,12,59,15.50
2014,04,13,13,00,15.30
2014,04,13,13,01,15.10
2014,04,13,13,02,15.00
2014,04,13,13,03,15.00
2014,04,13,13,04,15.00
2014,04,13,13,05,15.00
2014,04,13,13,06,15.00
2014,04,13,13,07,15.00
2014,04,13,13,08,15.00
2014,04,13,13,09,15.00
2014,04,13,13,10,15.00
2014,04,13,13,11,14.90
2014,04,13,13,12,15.00
2014,04,13,13,13,14.90
2014,04,13,13,14,15.00
2014,04,13,13,15,15.00
2014,04,13,13,16,15.00
2014,04,13,13,17,15.10
2014,04,13,13,18,15.30
2014,04,13,13,19,15.30
2014,04,13,13,20,15.40
2014,04,13,13,21,15.30
2014,04,13,13,22,15.30
2014,04,13,13,23,15.30
2014,04,13,13,24,15.40
2014,04,13,13,25,15.50
2014,04,13,13,26,15.60
2014,04,13,13,27,15.60
2014,04,13,13,28,15.60
2014,04,13,13,29,15.70
2014,04,13,13,30,15.70
2014,04,13,13,31,15.80
2014,04,13,13,32,15.90
2014,04,13,13,33,15.90
2014,04,13,13,34,15.90
2014,04,13,13,35,15.90
2014,04,13,13,36,15.90
2014,04,13,13,37,15.80
2014,04,13,13,38,15.80
2014,04,13,13,39,15.80
2014,04,13,13,40,15.90
2014,04,13,13,41,15.90
2014,04,13,13,42,15.90
2014,04,13,13,43,15.90
2014,04,13,13,44,15.80
2014,04,13,13,45,15.70
2014,04,13,13,46,15.60
2014,04,13,13,47,15.40
2014,04,13,13,48,15.20
2014,04,13,13,49,15.00
2014,04,13,13,50,15.00
2014,04,13,13,51,15.00
2014,04,13,13,52,15.00
2014,04,13,13,53,15.00
2014,04,13,13,54,15.10
2014,04,13,13,55,15.20
2014,04,13,13,56,15.30
2014,04,13,13,57,15.30
2014,04,13,13,58,15.30
2014,04,13,13,59,15.30
2014,04,13,14,00,15.30
2014,04,13,14,01,15.20
2014,04,13,14,02,15.20
2014,04,13,14,03,15.20
2014,04,13,14,04,15.20
2014,04,13,14,05,15.20
2014,04,13,14,06,15.20
2014,04,13,14,07,15.30
2014,04,13,14,08,15.30
2014,04,13,14,09,15.30
2014,04,13,14,10,15.30
2014,04,13,14,11,15.30
2014,04,13,14,12,15.20
2014,04,13,14,13,15.20
2014,04,13,14,14,15.30
2014,04,13,14,15,15.30
2014,04,13,14,16,15.50
2014,04,13,14,17,15.60
2014,04,13,14,18,15.70
2014,04,13,14,19,15.80
2014,04,13,14,20,15.80
2014,04,13,14,21,15.70
2014,04,13,14,22,15.70
2014,04,13,14,23,15.70
2014,04,13,14,24,15.60
2014,04,13,14,25,15.60
2014,04,13,14,26,15.60
2014,04,13,14,27,15.50
2014,04,13,14,28,15.40
2014,04,13,14,29,15.30
2014,04,13,14,30,15.20
2014,04,13,14,31,15.00
2014,04,13,14,32,15.00
2014,04,13,14,33,15.00
2014,04,13,14,34,14.80
2014,04,13,14,35,14.60
2014,04,13,14,36,14.60
2014,04,13,14,37,14.50
2014,04,13,14,38,14.40
2014,04,13,14,39,14.40
2014,04,13,14,40,14.30
2014,04,13,14,41,14.40
2014,04,13,14,42,14.40
2014,04,13,14,43,14.50
2014,04,13,14,44,14.60
2014,04,13,14,45,14.80
2014,04,13,14,46,15.00
2014,04,13,14,47,15.00
2014,04,13,14,48,15.10
2014,04,13,14,49,15.20
2014,04,13,14,50,15.30
2014,04,13,14,51,15.30
2014,04,13,14,52,15.50
2014,04,13,14,53,15.60
2014,04,13,14,54,15.70
2014,04,13,14,55,15.80
2014,04,13,14,56,15.80
2014,04,13,14,57,15.70
2014,04,13,14,58,15.60
2014,04,13,14,59,15.40
2014,04,13,15,00,15.30
2014,04,13,15,01,15.20
2014,04,13,15,02,15.10
2014,04,13,15,03,15.20
2014,04,13,15,04,15.20
2014,04,13,15,05,15.30
2014,04,13,15,06,15.40
2014,04,13,15,07,15.50
2014,04,13,15,08,15.60
2014,04,13,15,09,15.60
2014,04,13,15,10,15.70
2014,04,13,15,11,15.80
2014,04,13,15,12,15.80
2014,04,13,15,13,15.80
2014,04,13,15,14,15.70
2014,04,13,15,15,15.60
2014,04,13,15,16,15.60
2014,04,13,15,17,15.50
2014,04,13,15,18,15.50
2014,04,13,15,19,15.50
2014,04,13,15,20,15.50
2014,04,13,15,21,15.40
2014,04,13,15,22,15.40
2014,04,13,15,23,15.40
2014,04,13,15,24,15.40
2014,04,13,15,25,15.30
2014,04,13,15,26,15.30
2014,04,13,15,27,15.30
2014,04,13,15,28,15.20
2014,04,13,15,29,15.10
2014,04,13,15,30,15.00
2014,04,13,15,31,15.00
2014,04,13,15,32,15.00
2014,04,13,15,33,15.00
2014,04,13,15,34,15.00
2014,04,13,15,35,15.00
2014,04,13,15,36,15.00
2014,04,13,15,37,15.00
2014,04,13,15,38,15.00
2014,04,13,15,39,15.00
2014,04,13,15,40,15.00
2014,04,13,15,41,15.00
2014,04,13,15,42,15.20
2014,04,13,15,43,15.30
2014,04,13,15,44,15.50
2014,04,13,15,45,15.50
2014,04,13,15,46,15.60
2014,04,13,15,47,15.80
2014,04,13,15,48,15.80
2014,04,13,15,49,15.90
2014,04,13,15,50,16.00
2014,04,13,15,51,16.10
2014,04,13,15,52,16.10
2014,04,13,15,53,16.10
2014,04,13,15,54,16.10
2014,04,13,15,55,16.20
2014,04,13,15,56,16.20
2014,04,13,15,57,16.30
2014,04,13,15,58,16.30
2014,04,13,15,59,16.40
2014,04,13,16,00,16.40
2014,04,13,16,01,16.30
2014,04,13,16,02,16.20
2014,04,13,16,03,16.10
2014,04,13,16,04,16.10
2014,04,13,16,05,16.00
2014,04,13,16,06,16.00
2014,04,13,16,07,16.10
2014,04,13,16,08,16.10
2014,04,13,16,09,16.00
2014,04,13,16,10,16.00
2014,04,13,16,11,15.90
2014,04,13,16,12,15.80
2014,04,13,16,13,15.70
2014,04,13,16,14,15.60
2014,04,13,16,15,15.50
2014,04,13,16,16,15.50
2014,04,13,16,17,15.50
2014,04,13,16,18,15.60
2014,04,13,16,19,15.70
2014,04,13,16,20,15.80
2014,04,13,16,21,15.90
2014,04,13,16,22,16.10
2014,04,13,16,23,16.20
2014,04,13,16,24,16.30
2014,04,13,16,25,16.30
2014,04,13,16,26,16.30
2014,04,13,16,27,16.10
2014,04,13,16,28,16.00
2014,04,13,16,29,15.90
2014,04,13,16,30,15.90
2014,04,13,16,31,15.90
2014,04,13,16,32,15.90
2014,04,13,16,33,15.90
2014,04,13,16,34,15.80
2014,04,13,16,35,15.80
2014,04,13,16,36,15.80
2014,04,13,16,37,15.80
2014,04,13,16,38,15.70
2014,04,13,16,39,15.60
2014,04,13,16,40,15.50
2014,04,13,16,41,15.40
2014,04,13,16,42,15.30
2014,04,13,16,43,15.20
2014,04,13,16,44,15.10
2014,04,13,16,45,15.00
2014,04,13,16,46,15.00
2014,04,13,16,47,15.00
2014,04,13,16,48,15.00
2014,04,13,16,49,14.90
2014,04,13,16,50,14.80
2014,04,13,16,51,14.80
2014,04,13,16,52,14.80
2014,04,13,16,53,14.80
2014,04,13,16,54,14.80
2014,04,13,16,55,14.90
2014,04,13,16,56,15.00
2014,04,13,16,57,15.00
2014,04,13,16,58,15.00
2014,04,13,16,59,15.00
2014,04,13,17,00,15.00
2014,04,13,17,01,15.10
2014,04,13,17,02,15.10
2014,04,13,17,03,15.10
2014,04,13,17,04,15.00
2014,04,13,17,05,15.00
2014,04,13,17,06,15.00
2014,04,13,17,07,15.00
2014,04,13,17,08,15.00
2014,04,13,17,09,15.00
2014,04,13,17,10,15.10
2014,04,13,17,11,15.10
2014,04,13,17,12,15.00
2014,04,13,17,13,15.00
2014,04,13,17,14,15.00
2014,04,13,17,15,15.00
2014,04,13,17,16,15.00
2014,04,13,17,17,14.90
2014,04,13,17,18,14.80
2014,04,13,17,19,14.80
2014,04,13,17,20,14.70
2014,04,13,17,21,14.70
2014,04,13,17,22,14.70
2014,04,13,17,23,14.70
2014,04,13,17,24,14.70
2014,04,13,17,25,14.70
2014,04,13,17,26,14.70
2014,04,13,17,27,14.70
2014,04,13,17,28,14.70
2014,04,13,17,29,14.70
2014,04,13,17,30,14.70
2014,04,13,17,31,14.70
2014,04,13,17,32,14.70
2014,04,13,17,33,14.70
2014,04,13,17,34,14.70
2014,04,13,17,35,14.70
2014,04,13,17,36,14.70
2014,04,13,17,37,14.80
2014,04,13,17,38,14.80
2014,04,13,17,39,14.90
2014,04,13,17,40,15.00